Wind_Speed
34 35 36 37 38 39 40 40 40 41 42 42 43 43 44 45 46 46 46 47 47 47 48 48 48 49 49 49 49 49 49 49 49 49 49 49 49 49 48 48 48 47 46
34 34 35 36 38 39 40 40 41 42 43 44 44 45 45 46 47 48 48 48 48 48 49 49 50 50 51 51 50 50 50 50 50 51 51 51 50 50 50 50 49 49 48
33 34 35 36 37 38 39 41 43 43 44 45 46 47 47 47 47 47 48 49 49 49 50 50 50 51 51 51 52 52 51 51 51 52 52 51 51 51 51 50 50 50 51
33 34 35 36 37 38 40 42 44 44 45 45 46 46 47 47 48 48 49 49 50 50 50 51 51 51 52 52 53 52 52 52 52 52 52 52 52 52 51 51 52 52 53
34 35 36 37 38 39 41 42 44 44 45 45 45 45 46 46 47 48 49 49 49 50 50 51 52 52 52 52 52 53 53 52 53 53 53 54 54 54 55 54 53 54 55
35 35 37 37 38 39 41 42 43 43 44 44 45 45 46 46 46 47 48 48 48 49 50 51 52 52 52 53 53 53 54 54 54 54 54 55 54 55 56 56 55 56 56
36 36 37 37 38 39 40 41 42 42 43 43 44 44 45 46 46 47 47 47 47 48 49 50 51 52 52 53 53 54 54 55 55 55 55 55 55 56 57 57 57 57 57
37 37 38 38 39 40 40 41 41 42 43 43 44 45 46 46 46 47 47 47 46 47 48 49 50 51 52 52 53 53 54 55 55 55 55 56 56 57 58 57 57 57 58
38 38 38 39 40 40 41 41 42 42 43 44 44 45 46 47 46 47 48 47 47 47 48 49 51 51 51 52 52 53 54 54 55 55 56 56 56 56 57 57 57 57 57
38 38 39 39 40 41 41 42 43 43 43 44 44 45 45 46 47 48 48 48 48 49 49 49 50 51 51 51 53 53 54 54 54 55 56 56 56 56 56 56 56 57 56
38 38 38 40 40 40 41 41 42 43 44 45 45 45 45 45 47 47 48 48 48 49 50 50 50 51 51 51 52 52 52 53 54 55 55 54 54 55 55 56 56 55 55
39 38 38 39 40 40 40 41 41 43 44 45 46 46 46 46 46 47 47 48 49 49 50 50 50 50 51 51 52 52 52 52 53 53 54 55 54 53 54 55 55 54 53
39 39 38 39 39 40 40 41 42 43 44 45 45 45 46 46 46 46 47 48 49 49 49 49 49 50 51 52 53 53 53 52 52 53 53 54 54 53 52 53 53 53 52
39 39 39 39 40 40 40 41 42 43 44 44 44 45 45 46 46 47 48 48 49 49 49 49 49 50 52 52 52 52 54 53 53 53 53 51 51 51 52 51 50 51 51
39 39 40 40 41 41 41 41 42 43 44 44 45 45 46 47 48 48 48 49 48 48 49 50 50 51 51 52 52 53 53 53 53 52 52 51 50 50 50 50 50 51 51
39 40 40 41 41 42 42 42 42 43 43 44 45 46 47 48 49 49 49 48 49 49 49 49 50 50 51 52 53 53 52 52 52 51 51 50 49 48 49 49 49 50 51
39 40 41 41 42 42 42 42 43 43 44 44 46 47 48 48 49 49 49 49 49 49 50 50 50 49 50 51 51 52 51 51 50 49 50 49 48 49 48 48 48 48 49
40 40 41 41 42 42 43 43 43 43 44 45 47 47 48 49 49 48 47 47 47 47 47 49 49 49 49 49 49 49 49 49 48 47 47 47 47 47 48 48 48 48 47
41 41 41 42 42 42 43 44 44 44 45 46 47 47 47 47 47 46 46 45 45 45 45 46 47 48 48 47 47 47 47 47 46 45 45 45 46 46 47 48 48 48 46
42 42 42 42 42 42 43 43 44 45 45 45 45 45 45 45 44 44 44 44 44 43 43 44 44 44 44 44 44 45 45 45 44 44 44 44 44 44 45 45 45 45 44
41 41 41 41 41 42 42 43 43 43 43 44 44 44 44 43 43 43 44 44 44 43 42 42 42 42 41 41 42 43 43 42 42 41 41 42 43 42 42 42 42 41 40
40 40 40 41 41 42 42 43 43 43 42 43 43 43 43 43 43 42 42 42 42 42 41 40 40 39 39 39 39 41 41 41 40 39 39 40 40 40 40 39 38 38 39
39 40 40 41 41 42 43 43 42 42 42 42 42 41 41 41 42 42 41 41 41 40 40 40 39 38 37 37 38 38 38 38 37 36 36 36 36 36 36 36 36 36 37
40 40 41 41 42 42 43 42 42 42 41 41 41 41 41 40 40 39 39 39 38 38 38 37 37 36 35 34 34 34 34 34 34 34 33 33 34 34 33 33 33 34 35
40 40 41 42 42 42 42 41 41 41 41 41 40 40 39 39 38 38 37 36 35 35 34 33 32 31 31 30 30 29 30 30 30 31 31 30 30 31 31 32 32 32 32
40 41 41 41 40 41 41 41 41 40 40 40 39 38 38 37 37 36 35 35 34 33 32 32 31 29 29 28 27 28 28 28 29 29 29 29 30 31 31 31 31 31 31
Wind_Direction
270 268 267 266 264 261 260 259 260 261 261 263 263 263 263 262 263 264 264 264 264 264 264 264 264 264 265 265 265 267 268 268 268 267 266 266 265 265 265 265 266 266 267
271 270 269 267 265 262 260 260 261 262 263 264 264 264 263 263 264 265 266 265 265 265 265 264 263 263 264 264 265 266 267 268 268 267 267 266 265 265 265 266 266 266 267
271 270 268 267 266 264 262 261 262 264 264 265 265 265 264 264 264 265 265 266 266 266 265 264 264 263 263 264 265 266 266 268 268 268 268 267 267 265 265 265 265 265 266
271 270 269 269 268 266 265 265 263 265 266 266 266 266 266 266 267 267 266 266 266 266 265 264 264 264 264 264 265 265 266 267 267 267 267 267 267 267 266 265 265 265 266
273 272 271 270 270 269 267 267 265 266 267 267 267 268 267 267 267 267 267 266 266 266 265 264 264 264 264 264 265 265 265 266 267 267 267 267 267 268 268 266 265 265 265
274 274 273 272 271 271 269 268 267 267 268 268 268 268 269 269 268 268 267 267 266 266 265 265 265 265 265 265 266 266 266 266 267 267 267 267 268 269 269 268 267 266 267
275 275 275 273 272 271 271 270 269 268 268 269 269 269 270 270 270 269 268 268 267 267 267 266 266 267 267 266 266 266 266 266 266 267 267 267 268 269 269 268 268 267 267
276 275 274 272 271 272 271 271 270 269 269 270 270 271 271 272 272 271 270 269 268 267 267 266 267 268 268 267 267 266 266 266 266 266 267 267 268 268 269 269 269 268 268
277 276 275 273 273 272 272 272 272 271 271 271 272 272 273 273 273 272 271 271 270 269 269 268 268 268 269 268 267 267 266 266 266 266 267 268 269 269 268 268 269 269 269
278 278 277 276 274 273 273 273 274 273 274 274 273 273 274 273 274 273 272 272 271 271 271 270 269 269 270 269 268 267 267 267 267 267 268 268 269 269 268 268 269 270 269
278 278 278 277 276 275 275 274 274 274 274 274 274 274 274 274 274 275 274 272 272 272 272 271 271 271 271 270 269 269 269 268 268 268 268 269 270 269 268 268 268 269 269
276 276 276 277 277 277 277 276 275 275 275 275 275 275 275 275 275 276 275 274 273 273 272 272 271 271 270 270 270 270 269 268 267 267 268 269 269 269 268 267 267 269 269
277 277 276 278 279 278 277 276 277 277 276 275 275 275 275 275 275 276 277 277 276 275 274 273 273 272 270 270 270 270 268 268 267 268 269 269 269 268 268 267 267 267 267
277 277 278 278 279 279 278 278 278 279 278 277 276 276 276 276 276 277 277 277 277 276 274 274 274 273 272 271 270 270 269 267 267 268 268 269 269 268 268 266 266 266 266
277 277 278 279 280 279 279 279 279 280 279 278 278 278 278 278 278 278 278 278 278 277 276 275 274 274 272 271 270 271 270 268 267 268 268 268 268 269 267 265 265 265 265
278 278 279 280 280 280 279 280 280 281 280 279 279 280 280 279 279 279 280 279 277 277 277 276 275 274 273 272 271 271 270 268 267 268 268 267 267 267 266 265 264 264 265
279 279 280 281 281 280 280 280 280 280 280 281 281 281 281 280 280 280 280 280 278 276 276 276 276 276 274 272 271 269 269 268 267 268 268 267 268 267 266 265 263 264 265
279 280 281 282 281 282 282 281 281 281 281 283 283 284 282 281 281 281 280 279 278 276 275 275 275 275 275 273 271 269 269 268 268 269 269 268 267 267 266 265 264 264 263
281 282 283 284 283 284 284 283 282 282 283 284 285 284 284 284 282 281 279 279 278 277 276 276 276 276 276 273 271 269 268 268 269 269 269 268 267 266 266 266 265 264 264
281 283 284 285 285 286 286 285 284 284 284 284 284 285 285 285 284 282 281 280 279 277 276 276 276 276 276 273 270 268 268 268 269 269 268 267 266 265 265 266 265 264 264
282 284 284 285 287 287 287 286 286 286 285 285 285 285 286 285 284 283 283 283 281 278 277 276 276 276 275 273 270 268 268 268 268 268 268 267 265 264 264 264 263 262 262
283 285 285 286 287 288 288 288 287 287 286 286 287 286 286 285 284 283 282 282 281 279 278 277 277 277 276 274 273 272 269 268 268 268 268 265 264 264 264 264 263 261 261
285 285 286 287 288 288 289 289 289 288 288 287 287 287 287 287 284 282 282 281 280 280 279 278 278 278 276 275 273 272 270 269 269 268 266 264 263 263 262 261 261 261 261
285 286 287 288 288 288 290 290 290 290 289 289 287 287 286 286 284 283 283 282 281 279 279 278 278 277 276 274 272 270 270 269 268 267 265 264 262 261 260 259 260 260 260
285 286 288 289 289 289 290 291 291 291 291 290 289 287 285 283 283 283 283 283 282 281 279 277 277 278 276 274 273 272 269 268 266 265 263 262 261 259 259 258 258 260 260
285 287 288 289 290 290 291 292 292 292 291 291 290 288 286 283 282 282 281 281 281 279 279 278 277 276 276 273 273 272 270 267 266 265 262 262 261 260 259 258 258 259 259
Height
5722 5722 5723 5723 5723 5724 5726 5727 5729 5730 5731 5731 5732 5733 5734 5735 5734 5735 5735 5736 5736 5736 5737 5737 5738 5738 5738 5739 5739 5738 5738 5737 5736 5736 5736 5737 5737 5737 5738 5738 5739 5740 5740
5714 5714 5714 5714 5714 5715 5716 5717 5718 5719 5720 5720 5721 5721 5722 5722 5723 5723 5723 5723 5723 5724 5724 5724 5725 5725 5725 5726 5726 5726 5725 5725 5724 5723 5723 5724 5726 5726 5726 5727 5727 5728 5728
5707 5706 5705 5705 5705 5706 5706 5707 5707 5708 5709 5709 5709 5709 5710 5710 5710 5710 5710 5710 5710 5711 5711 5711 5711 5712 5712 5712 5713 5713 5712 5711 5711 5710 5710 5710 5712 5713 5715 5715 5715 5716 5716
5698 5697 5697 5696 5696 5696 5696 5696 5696 5696 5697 5697 5697 5697 5698 5698 5698 5698 5698 5698 5697 5697 5697 5697 5698 5698 5698 5699 5699 5699 5698 5697 5697 5697 5697 5698 5698 5699 5701 5703 5703 5703 5703
5689 5688 5688 5687 5686 5686 5685 5685 5685 5685 5685 5685 5685 5685 5685 5685 5684 5684 5684 5684 5684 5684 5683 5683 5684 5684 5684 5685 5685 5685 5684 5684 5684 5684 5684 5684 5684 5684 5686 5688 5690 5689 5689
5680 5679 5678 5677 5676 5675 5674 5674 5674 5674 5674 5674 5673 5673 5673 5672 5671 5671 5671 5671 5671 5670 5670 5670 5670 5670 5670 5671 5671 5671 5671 5670 5670 5670 5670 5670 5671 5671 5671 5672 5674 5674 5675
5671 5670 5668 5667 5666 5664 5663 5663 5662 5663 5663 5662 5662 5661 5660 5660 5659 5658 5658 5657 5657 5657 5657 5656 5656 5656 5656 5656 5656 5656 5657 5657 5657 5657 5657 5657 5657 5657 5657 5657 5658 5658 5660
5662 5660 5659 5657 5656 5655 5653 5652 5652 5652 5651 5651 5650 5649 5648 5648 5647 5646 5645 5644 5644 5643 5643 5642 5642 5642 5642 5642 5642 5642 5643 5643 5643 5643 5643 5643 5643 5642 5642 5642 5642 5643 5644
5652 5651 5649 5648 5646 5645 5644 5642 5641 5641 5640 5640 5639 5638 5636 5635 5634 5633 5632 5631 5630 5630 5629 5628 5628 5628 5628 5628 5627 5628 5628 5628 5629 5629 5629 5628 5628 5628 5628 5627 5627 5627 5628
5642 5641 5639 5637 5636 5634 5633 5632 5630 5630 5629 5628 5626 5625 5624 5623 5621 5620 5619 5618 5617 5616 5615 5615 5614 5614 5614 5613 5613 5613 5614 5614 5614 5614 5614 5614 5613 5613 5613 5613 5612 5612 5612
5632 5630 5629 5627 5625 5624 5622 5621 5620 5618 5617 5616 5614 5613 5611 5610 5609 5607 5606 5604 5603 5602 5601 5601 5600 5599 5599 5599 5599 5599 5599 5599 5600 5599 5600 5599 5598 5598 5598 5598 5598 5597 5597
5621 5620 5618 5616 5615 5613 5612 5610 5608 5607 5605 5604 5602 5600 5599 5598 5596 5594 5593 5591 5589 5588 5587 5586 5586 5585 5585 5584 5584 5584 5584 5584 5585 5585 5584 5585 5584 5583 5584 5583 5583 5584 5584
5611 5609 5608 5606 5605 5603 5601 5599 5597 5595 5594 5592 5590 5588 5587 5585 5583 5581 5579 5577 5576 5574 5572 5572 5572 5571 5570 5570 5569 5569 5569 5569 5569 5569 5569 5569 5569 5569 5569 5569 5569 5570 5570
5601 5599 5597 5596 5594 5592 5590 5588 5586 5584 5582 5580 5578 5577 5575 5573 5571 5568 5566 5564 5562 5560 5558 5558 5557 5556 5556 5555 5555 5554 5554 5554 5554 5555 5555 5555 5555 5555 5555 5555 5555 5555 5556
5590 5588 5587 5585 5583 5581 5579 5577 5575 5572 5570 5568 5566 5565 5563 5560 5558 5555 5553 5551 5548 5546 5545 5543 5542 5542 5541 5540 5540 5539 5539 5539 5540 5540 5540 5541 5541 5541 5541 5542 5542 5542 5542
5579 5578 5576 5574 5572 5570 5568 5566 5563 5561 5558 5556 5554 5552 5550 5547 5544 5542 5539 5536 5534 5532 5531 5529 5528 5527 5526 5526 5525 5524 5524 5525 5525 5526 5527 5527 5527 5527 5527 5528 5528 5528 5528
5568 5567 5565 5563 5561 5559 5556 5554 5552 5549 5547 5544 5541 5539 5536 5533 5531 5528 5525 5522 5520 5518 5517 5515 5514 5513 5512 5511 5510 5509 5509 5511 5512 5512 5513 5513 5513 5513 5514 5514 5514 5515 5515
5557 5555 5554 5552 5549 5547 5544 5542 5539 5536 5534 5531 5528 5525 5522 5519 5517 5514 5511 5508 5506 5504 5502 5501 5500 5499 5498 5497 5496 5495 5495 5496 5498 5498 5499 5499 5500 5500 5500 5500 5501 5502 5503
5546 5544 5542 5540 5538 5535 5532 5529 5527 5524 5521 5518 5515 5512 5509 5506 5503 5500 5498 5495 5493 5490 5489 5488 5486 5485 5484 5483 5482 5482 5482 5483 5484 5485 5485 5486 5486 5487 5486 5487 5488 5489 5490
5534 5532 5530 5528 5526 5523 5520 5517 5514 5512 5508 5505 5502 5498 5495 5493 5490 5487 5485 5482 5480 5478 5476 5475 5473 5472 5471 5470 5469 5469 5469 5471 5471 5472 5472 5472 5473 5473 5473 5473 5474 5475 5477
5523 5521 5519 5516 5514 5511 5508 5505 5502 5499 5496 5492 5489 5486 5483 5480 5477 5475 5472 5470 5467 5465 5464 5463 5461 5460 5459 5458 5457 5457 5457 5458 5458 5459 5459 5459 5460 5460 5461 5461 5462 5463 5464
5512 5509 5507 5505 5502 5499 5496 5493 5490 5487 5483 5480 5477 5474 5471 5468 5465 5463 5460 5457 5455 5453 5452 5451 5450 5449 5447 5447 5446 5445 5445 5446 5446 5447 5447 5447 5448 5449 5449 5449 5450 5451 5452
5500 5498 5496 5493 5490 5487 5484 5481 5477 5474 5471 5468 5465 5462 5459 5455 5453 5450 5448 5446 5443 5442 5441 5440 5439 5438 5437 5436 5435 5434 5434 5434 5435 5435 5435 5436 5436 5437 5438 5438 5439 5440 5441
5489 5486 5484 5481 5478 5475 5472 5468 5465 5462 5459 5456 5452 5450 5447 5444 5441 5438 5436 5434 5432 5431 5429 5429 5428 5427 5426 5425 5424 5424 5424 5424 5424 5425 5425 5426 5426 5426 5427 5428 5429 5430 5431
5477 5474 5472 5469 5466 5463 5459 5456 5453 5450 5447 5443 5440 5437 5435 5432 5430 5428 5425 5423 5422 5419 5419 5418 5417 5417 5416 5416 5415 5414 5415 5415 5415 5415 5416 5416 5417 5417 5417 5418 5419 5420 5421
5465 5462 5459 5456 5454 5451 5447 5444 5441 5438 5435 5432 5428 5426 5423 5421 5419 5417 5415 5413 5411 5410 5409 5408 5408 5408 5407 5407 5406 5406 5406 5406 5406 5407 5407 5408 5408 5408 5409 5409 5410 5411 5412